Location: Cornospital
(48.0620°N, 3.3837°W)
Time: 21:27:55
(UTC+00:00)

Cosmos 292 Rocket - Pass Details

Date: 17 June 2021
Orbit: 674 x 693 km, 74.0° (Epoch: 03 August)

Event Time Altitude Azimuth Distance (km) Brightness Sun altitude
Rises 21:20:57 0° 210° (SSW) 3,052 6.9 -8.6°
Reaches altitude 10° 21:23:16 10° 214° (SW) 2,137 6.2 -8.9°
Maximum altitude 21:28:03 62° 295° (WNW) 774 4.3 -9.4°
Drops below altitude 10° 21:32:50 10° 17° (NNE) 2,141 6.8 -9.9°
Sets 21:35:10 0° 21° (NNE) 3,058 7.6 -10.1°
